Find Starlink 36412

NORAD ID: 67518 Int'l Des: 2026-012 Owner: SPXS Country: US Constellation: starlink operational
LEOCIRCULAR

当前视图

正在加载3D地球...

关于 Starlink 36412

正在加载描述...

即将过境

Passes for default location (London). Set your location on the main map for personalized predictions.

高度历史

Loading altitude history...

两行轨道根数

1 67518U 26012AB 26145.57379373 .00014406 00000-0 53190-3 0 9996
2 67518 43.0037 239.9020 0001015 276.8842 83.1894 15.27587138 19522
Epoch: May 25, 2026 • Age: 24 hours

当前状态

高度 484.3 km
速度 7.62 km/s
星下点 -8.95°S, 32.59°W
发射日期 Jan 18, 2026
运行时间 0.3 years
类型 internet

技术详情

分类 Payload
质量 575.00 kg
干质量 530.00 kg
总质量 575.00 kg
长度 0.30 m
直径 4.10 m
跨度 29.00 m
形状 Box + pan
制造商 SPXS
平台类型 Starlink V2MO
阶段状态 In Orbit
所有者/国家 SPXS/US

Most Searched